| time (UTC) | temp F | wind direction | speed MPH | gust MPH | rain 1hr in | rain 24hr in | rain mn in | humidity % | barometer mb |
| 20260902054816 | 64 | 243 | 6.0 | 17.0 | 0.00 | 0.01 | 0.01 | 56 | 1010.6 |
| 20260902053815 | 64 | 262 | 6.0 | 19.0 | 0.00 | 0.01 | 0.01 | 56 | 1010.6 |
| 20260902052815 | 64 | 258 | 5.0 | 17.0 | 0.00 | 0.01 | 0.01 | 55 | 1010.5 |
| 20260902051817 | 64 | 201 | 5.0 | 26.0 | 0.00 | 0.01 | 0.01 | 54 | 1010.6 |
| 20260902050817 | 64 | 255 | 9.0 | 30.0 | 0.00 | 0.01 | 0.01 | 55 | 1010.3 |
| 20260902045816 | 65 | 294 | 7.0 | 22.0 | 0.00 | 0.01 | 0.01 | 54 | 1010.2 |
| 20260902044836 | 65 | 258 | 6.0 | 26.0 | 0.00 | 0.01 | 0.01 | 54 | 1010.1 |
| 20260902043816 | 65 | 275 | 11.0 | 26.0 | 0.00 | 0.01 | 0.01 | 51 | 1010.0 |
| 20260902042815 | 65 | 257 | 5.0 | 25.0 | 0.00 | 0.01 | 0.01 | 51 | 1010.0 |
| 20260902041817 | 65 | 267 | 9.0 | 26.0 | 0.00 | 0.01 | 0.01 | 50 | 1009.8 |
| 20260902040817 | 65 | 290 | 6.0 | 34.0 | 0.00 | 0.01 | 0.01 | 50 | 1009.5 |
| 20260902035817 | 65 | 280 | 10.0 | 25.0 | 0.00 | 0.01 | 0.01 | 50 | 1009.6 |
| 20260902034816 | 66 | 306 | 7.0 | 30.0 | 0.00 | 0.01 | 0.01 | 51 | 1009.4 |
| 20260902033816 | 66 | 255 | 13.0 | 26.0 | 0.00 | 0.01 | 0.01 | 50 | 1009.2 |
| 20260902032815 | 66 | 231 | 9.0 | 23.0 | 0.00 | 0.01 | 0.01 | 50 | 1009.2 |
| 20260902031834 | 66 | 319 | 9.0 | 25.0 | 0.00 | 0.01 | 0.01 | 51 | 1009.1 |
| 20260902030817 | 66 | 277 | 10.0 | 31.0 | 0.00 | 0.01 | 0.01 | 51 | 1009.2 |
| 20260902025837 | 66 | 278 | 18.0 | 33.0 | 0.00 | 0.01 | 0.01 | 50 | 1009.4 |
| 20260902024816 | 66 | 274 | 8.0 | 30.0 | 0.00 | 0.01 | 0.01 | 51 | 1009.4 |
| 20260902023816 | 66 | 290 | 13.0 | 28.0 | 0.00 | 0.01 | 0.01 | 50 | 1009.1 |
| 20260902022816 | 66 | 311 | 8.0 | 25.0 | 0.00 | 0.01 | 0.01 | 50 | 1008.9 |
| 20260902021815 | 66 | 270 | 12.0 | 26.0 | 0.00 | 0.01 | 0.01 | 51 | 1009.0 |
| 20260902020818 | 66 | 312 | 7.0 | 25.0 | 0.00 | 0.01 | 0.01 | 50 | 1008.9 |
| 20260902015817 | 67 | 296 | 7.0 | 29.0 | 0.00 | 0.01 | 0.01 | 50 | 1008.8 |
| 20260902014817 | 67 | 259 | 10.0 | 32.0 | 0.00 | 0.01 | 0.01 | 50 | 1009.0 |
| 20260902013816 | 67 | 278 | 11.0 | 29.0 | 0.00 | 0.01 | 0.01 | 51 | 1009.1 |
| 20260902012856 | 67 | 272 | 11.0 | 28.0 | 0.00 | 0.01 | 0.01 | 49 | 1009.0 |
| 20260902011815 | 68 | 288 | 14.0 | 27.0 | 0.00 | 0.01 | 0.01 | 49 | 1008.7 |
| 20260902010815 | 68 | 275 | 7.0 | 29.0 | 0.00 | 0.01 | 0.01 | 48 | 1008.8 |
| 20260902005817 | 68 | 254 | 17.0 | 34.0 | 0.00 | 0.01 | 0.01 | 48 | 1008.7 |
| 20260902004817 | 68 | 263 | 14.0 | 33.0 | 0.00 | 0.01 | 0.01 | 48 | 1008.6 |
| 20260902003817 | 68 | 256 | 14.0 | 35.0 | 0.00 | 0.01 | 0.01 | 49 | 1008.4 |
| 20260902002816 | 67 | 278 | 12.0 | 35.0 | 0.00 | 0.01 | 0.01 | 49 | 1008.4 |
| 20260902001816 | 68 | 270 | 15.0 | 27.0 | 0.00 | 0.01 | 0.01 | 48 | 1008.5 |
| 20260902000815 | 68 | 286 | 10.0 | 32.0 | 0.00 | 0.01 | 0.01 | 49 | 1008.3 |
| 20260901235838 | 68 | 285 | 11.0 | 25.0 | 0.00 | 0.01 | 0.01 | 49 | 1008.4 |
| 20260901234817 | 67 | 280 | 14.0 | 26.0 | 0.00 | 0.01 | 0.01 | 49 | 1008.6 |
| 20260901233816 | 67 | 315 | 9.0 | 23.0 | 0.00 | 0.01 | 0.01 | 50 | 1008.6 |
| 20260901232816 | 67 | 261 | 11.0 | 28.0 | 0.00 | 0.01 | 0.01 | 49 | 1008.6 |
| 20260901231816 | 68 | 300 | 11.0 | 26.0 | 0.00 | 0.01 | 0.01 | 49 | 1008.6 |
| 20260901230835 | 67 | 287 | 7.0 | 34.0 | 0.00 | 0.01 | 0.01 | 49 | 1008.6 |
| 20260901225815 | 67 | 273 | 16.0 | 33.0 | 0.00 | 0.01 | 0.01 | 49 | 1008.5 |
| 20260901224818 | 68 | 276 | 15.0 | 41.0 | 0.00 | 0.01 | 0.01 | 50 | 1008.5 |
| 20260901223817 | 67 | 275 | 14.0 | 35.0 | 0.00 | 0.01 | 0.01 | 50 | 1008.3 |
| 20260901222816 | 67 | 278 | 16.0 | 36.0 | 0.00 | 0.01 | 0.01 | 50 | 1008.3 |
| 20260901221816 | 66 | 280 | 13.0 | 38.0 | 0.00 | 0.01 | 0.01 | 51 | 1008.1 |
| 20260901220815 | 66 | 271 | 16.0 | 43.0 | 0.00 | 0.01 | 0.01 | 51 | 1008.2 |
| 20260901215815 | 66 | 273 | 14.0 | 40.0 | 0.00 | 0.01 | 0.01 | 50 | 1008.0 |
| 20260901214815 | 68 | 274 | 13.0 | 33.0 | 0.00 | 0.00 | 0.00 | 50 | 1008.1 |
| 20260901213837 | 67 | 297 | 13.0 | 30.0 | 0.00 | 0.00 | 0.00 | 50 | 1008.2 |
| 20260901212837 | 67 | 256 | 9.0 | 37.0 | 0.00 | 0.00 | 0.00 | 49 | 1008.4 |
| 20260901211816 | 67 | 268 | 11.0 | 32.0 | 0.00 | 0.00 | 0.00 | 49 | 1008.5 |
| 20260901210816 | 67 | 313 | 7.0 | 35.0 | 0.00 | 0.00 | 0.00 | 49 | 1008.4 |
| 20260901205815 | 67 | 262 | 17.0 | 32.0 | 0.00 | 0.00 | 0.00 | 49 | 1008.4 |
| 20260901204815 | 67 | 292 | 12.0 | 30.0 | 0.00 | 0.00 | 0.00 | 50 | 1008.6 |
| 20260901203818 | 67 | 273 | 14.0 | 36.0 | 0.00 | 0.00 | 0.00 | 50 | 1008.7 |
| 20260901202817 | 66 | 271 | 15.0 | 38.0 | 0.00 | 0.00 | 0.00 | 50 | 1008.5 |
| 20260901201816 | 67 | 268 | 11.0 | 37.0 | 0.00 | 0.00 | 0.00 | 49 | 1008.7 |
| 20260901200816 | 66 | 280 | 17.0 | 37.0 | 0.00 | 0.00 | 0.00 | 50 | 1008.8 |
| 20260901195836 | 66 | 279 | 10.0 | 36.0 | 0.00 | 0.00 | 0.00 | 50 | 1008.6 |
| 20260901194855 | 66 | 308 | 11.0 | 36.0 | 0.00 | 0.00 | 0.00 | 50 | 1008.8 |
| 20260901193814 | 66 | 268 | 16.0 | 34.0 | 0.00 | 0.00 | 0.00 | 51 | 1009.0 |
| 20260901192817 | 66 | 267 | 11.0 | 38.0 | 0.00 | 0.00 | 0.00 | 50 | 1009.3 |
| 20260901191817 | 66 | 252 | 11.0 | 39.0 | 0.00 | 0.00 | 0.00 | 51 | 1009.4 |
| 20260901190816 | 66 | 277 | 12.0 | 30.0 | 0.00 | 0.00 | 0.00 | 50 | 1009.5 |
| 20260901185816 | 65 | 279 | 9.0 | 36.0 | 0.00 | 0.00 | 0.00 | 51 | 1009.4 |
| 20260901184815 | 65 | 265 | 11.0 | 37.0 | 0.00 | 0.00 | 0.00 | 51 | 1009.4 |
| 20260901183815 | 65 | 280 | 14.0 | 37.0 | 0.00 | 0.00 | 0.00 | 51 | 1009.4 |
| 20260901182818 | 65 | 264 | 15.0 | 32.0 | 0.00 | 0.00 | 0.00 | 51 | 1009.5 |
| 20260901181817 | 65 | 310 | 11.0 | 22.0 | 0.00 | 0.00 | 0.00 | 52 | 1009.6 |
| 20260901180817 | 64 | 322 | 6.0 | 32.0 | 0.00 | 0.00 | 0.00 | 53 | 1009.6 |
| 20260901175856 | 64 | 293 | 15.0 | 32.0 | 0.00 | 0.00 | 0.00 | 55 | 1009.6 |
| 20260901174816 | 63 | 313 | 11.0 | 35.0 | 0.00 | 0.00 | 0.00 | 56 | 1009.7 |
| 20260901173815 | 63 | 263 | 17.0 | 35.0 | 0.00 | 0.00 | 0.00 | 54 | 1009.6 |
| 20260901172815 | 63 | 312 | 12.0 | 24.0 | 0.00 | 0.00 | 0.00 | 55 | 1009.5 |
| 20260901171818 | 64 | 297 | 8.0 | 24.0 | 0.00 | 0.00 | 0.00 | 55 | 1009.6 |
| 20260901170817 | 63 | 312 | 8.0 | 23.0 | 0.00 | 0.00 | 0.00 | 55 | 1009.6 |
| 20260901165816 | 63 | 324 | 3.0 | 24.0 | 0.00 | 0.00 | 0.00 | 58 | 1009.5 |
| 20260901164816 | 62 | 292 | 6.0 | 25.0 | 0.00 | 0.00 | 0.00 | 58 | 1009.6 |
| 20260901163836 | 62 | 294 | 8.0 | 26.0 | 0.00 | 0.00 | 0.00 | 58 | 1009.5 |
| 20260901162815 | 62 | 318 | 9.0 | 26.0 | 0.00 | 0.00 | 0.00 | 59 | 1009.4 |
| 20260901161818 | 62 | 298 | 12.0 | 26.0 | 0.00 | 0.00 | 0.00 | 59 | 1009.6 |
| 20260901160817 | 61 | 321 | 10.0 | 30.0 | 0.00 | 0.00 | 0.00 | 61 | 1009.4 |
| 20260901155817 | 61 | 262 | 9.0 | 26.0 | 0.00 | 0.00 | 0.00 | 62 | 1009.5 |
| 20260901154816 | 61 | 300 | 9.0 | 36.0 | 0.00 | 0.00 | 0.00 | 61 | 1009.3 |
| 20260901153816 | 61 | 289 | 11.0 | 32.0 | 0.00 | 0.00 | 0.00 | 61 | 1009.3 |
| 20260901152815 | 61 | 294 | 12.0 | 30.0 | 0.00 | 0.00 | 0.00 | 62 | 1009.4 |
| 20260901151835 | 61 | 320 | 12.0 | 39.0 | 0.00 | 0.00 | 0.00 | 60 | 1009.2 |
| 20260901150818 | 61 | 327 | 12.0 | 34.0 | 0.00 | 0.00 | 0.00 | 61 | 1009.2 |
| 20260901145817 | 61 | 308 | 12.0 | 29.0 | 0.00 | 0.00 | 0.00 | 60 | 1009.3 |
| 20260901144857 | 61 | 279 | 11.0 | 32.0 | 0.00 | 0.00 | 0.00 | 61 | 1009.1 |
| 20260901143816 | 61 | 271 | 14.0 | 30.0 | 0.00 | 0.00 | 0.00 | 59 | 1009.0 |
| 20260901142815 | 61 | 262 | 10.0 | 30.0 | 0.00 | 0.00 | 0.00 | 61 | 1009.1 |
| 20260901141815 | 61 | 274 | 13.0 | 29.0 | 0.00 | 0.00 | 0.00 | 60 | 1009.1 |
| 20260901140814 | 61 | 277 | 10.0 | 29.0 | 0.00 | 0.00 | 0.00 | 62 | 1009.0 |
| 20260901135818 | 61 | 303 | 7.0 | 36.0 | 0.00 | 0.00 | 0.00 | 63 | 1008.8 |
| 20260901134817 | 61 | 303 | 9.0 | 28.0 | 0.00 | 0.00 | 0.00 | 62 | 1008.7 |
| 20260901133817 | 61 | 275 | 9.0 | 35.0 | 0.00 | 0.00 | 0.00 | 60 | 1008.6 |
| 20260901132836 | 61 | 256 | 17.0 | 31.0 | 0.00 | 0.00 | 0.00 | 59 | 1008.6 |
| 20260901131815 | 61 | 256 | 14.0 | 29.0 | 0.00 | 0.00 | 0.00 | 61 | 1008.4 |
| 20260901131418 | 61 | 273 | 15.0 | 32.0 | 0.00 | 0.00 | 0.00 | 58 | 1008.4 |
| 20260901130417 | 61 | 270 | 12.0 | 34.0 | 0.00 | 0.00 | 0.00 | 60 | 1008.4 |
| 20260901125417 | 61 | 277 | 14.0 | 36.0 | 0.00 | 0.00 | 0.00 | 60 | 1008.1 |
| 20260901124416 | 62 | 276 | 21.0 | 29.0 | 0.00 | 0.00 | 0.00 | 58 | 1008.2 |
| 20260901123516 | 62 | 263 | 10.0 | 40.0 | 0.00 | 0.00 | 0.00 | 58 | 1008.0 |
| 20260901122535 | 63 | 302 | 11.0 | 26.0 | 0.00 | 0.00 | 0.00 | 59 | 1007.8 |
| 20260901121515 | 63 | 269 | 7.0 | 36.0 | 0.00 | 0.00 | 0.00 | 58 | 1008.1 |
| 20260901120517 | 63 | 318 | 11.0 | 40.0 | 0.00 | 0.00 | 0.00 | 57 | 1008.1 |
| 20260901115517 | 63 | 276 | 15.0 | 32.0 | 0.00 | 0.00 | 0.00 | 54 | 1007.9 |
| 20260901114516 | 63 | 269 | 10.0 | 33.0 | 0.00 | 0.00 | 0.00 | 55 | 1007.9 |
| 20260901113516 | 64 | 269 | 17.0 | 32.0 | 0.00 | 0.00 | 0.00 | 54 | 1007.9 |
| 20260901112515 | 64 | 272 | 16.0 | 32.0 | 0.00 | 0.00 | 0.00 | 54 | 1007.8 |
| 20260901111515 | 64 | 269 | 15.0 | 32.0 | 0.00 | 0.00 | 0.00 | 53 | 1007.8 |
| 20260901110518 | 65 | 264 | 15.0 | 40.0 | 0.00 | 0.00 | 0.00 | 53 | 1007.8 |
| 20260901105517 | 65 | 260 | 14.0 | 32.0 | 0.00 | 0.00 | 0.00 | 52 | 1007.8 |
| 20260901104517 | 65 | 272 | 9.0 | 37.0 | 0.00 | 0.00 | 0.00 | 52 | 1007.9 |
| 20260901103516 | 65 | 286 | 15.0 | 34.0 | 0.00 | 0.00 | 0.00 | 51 | 1007.9 |
| 20260901102515 | 65 | 293 | 13.0 | 33.0 | 0.00 | 0.00 | 0.00 | 52 | 1007.8 |
| 20260901101515 | 66 | 261 | 12.0 | 37.0 | 0.00 | 0.00 | 0.00 | 50 | 1007.8 |
| 20260901100535 | 66 | 259 | 8.0 | 36.0 | 0.00 | 0.00 | 0.00 | 50 | 1007.7 |
| 20260901095517 | 67 | 279 | 10.0 | 30.0 | 0.00 | 0.00 | 0.00 | 48 | 1007.7 |
| 20260901094517 | 67 | 268 | 17.0 | 33.0 | 0.00 | 0.00 | 0.00 | 48 | 1007.6 |
| 20260901093536 | 67 | 278 | 14.0 | 32.0 | 0.00 | 0.00 | 0.00 | 49 | 1007.7 |
| 20260901092516 | 68 | 276 | 15.0 | 39.0 | 0.00 | 0.00 | 0.00 | 47 | 1007.6 |
| 20260901091515 | 68 | 276 | 17.0 | 29.0 | 0.00 | 0.00 | 0.00 | 46 | 1007.4 |
| 20260901090515 | 68 | 271 | 12.0 | 34.0 | 0.00 | 0.00 | 0.00 | 47 | 1007.3 |
| 20260901085517 | 69 | 265 | 16.0 | 36.0 | 0.00 | 0.00 | 0.00 | 45 | 1007.5 |
| 20260901084517 | 69 | 287 | 14.0 | 25.0 | 0.00 | 0.00 | 0.00 | 45 | 1007.4 |
| 20260901083517 | 70 | 288 | 8.0 | 28.0 | 0.00 | 0.00 | 0.00 | 45 | 1007.6 |
| 20260901082516 | 70 | 272 | 11.0 | 25.0 | 0.00 | 0.00 | 0.00 | 44 | 1007.6 |
| 20260901081536 | 70 | 287 | 10.0 | 28.0 | 0.00 | 0.00 | 0.00 | 43 | 1007.7 |
| 20260901080515 | 71 | 262 | 6.0 | 26.0 | 0.00 | 0.00 | 0.00 | 43 | 1007.7 |
| 20260901075515 | 70 | 276 | 11.0 | 27.0 | 0.00 | 0.00 | 0.00 | 42 | 1007.5 |
| 20260901074518 | 69 | 268 | 12.0 | 24.0 | 0.00 | 0.00 | 0.00 | 43 | 1007.5 |
| 20260901073517 | 68 | 252 | 7.0 | 13.0 | 0.00 | 0.00 | 0.00 | 46 | 1007.5 |
| 20260901072516 | 67 | 252 | 4.0 | 11.0 | 0.00 | 0.00 | 0.00 | 45 | 1007.5 |
| 20260901071516 | 67 | 229 | 6.0 | 14.0 | 0.00 | 0.00 | 0.00 | 44 | 1007.4 |
| 20260901070515 | 66 | 289 | 2.0 | 6.0 | 0.00 | 0.00 | 0.00 | 46 | 1007.4 |
| 20260901065535 | 67 | 66 | 2.0 | 4.0 | 0.00 | 0.00 | 0.00 | 46 | 1007.4 |
| 20260901064515 | 68 | 63 | 1.0 | 4.0 | 0.00 | 0.00 | 0.00 | 46 | 1007.4 |
| 20260901063517 | 69 | 248 | 2.0 | 6.0 | 0.00 | 0.00 | 0.00 | 42 | 1007.4 |
| 20260901062517 | 69 | 270 | 4.0 | 6.0 | 0.00 | 0.00 | 0.00 | 41 | 1007.5 |
| 20260901061517 | 69 | 320 | 3.0 | 6.0 | 0.00 | 0.00 | 0.00 | 40 | 1007.6 |
| 20260901060516 | 68 | 286 | 2.0 | 5.0 | 0.00 | 0.00 | 0.00 | 42 | 1007.5 |
| 20260901055515 | 68 | 186 | 1.0 | 3.0 | 0.00 | 0.00 | 0.00 | 42 | 1007.5 |